Location: Bastogne Gables
(35.1554°N, 78.9900°W)
Time: 19:49:49
(UTC+00:00)

AQUARIUS - Pass Details

Date: 28 February 2021
Orbit: 650 x 652 km, 98.0° (Epoch: 16 April)

Event Time Altitude Azimuth Distance (km) Brightness Sun altitude
Rises 00:06:37 0° 213° (SSW) 2,959 8.0 -12.3°
Reaches altitude 10° 00:10:06 10° 242° (WSW) 2,055 7.8 -13.0°
Maximum altitude 00:12:03 13° 268° (W) 1,887 7.9 -13.4°
Drops below altitude 10° 00:13:59 10° 294° (WNW) 2,061 7.8 -13.8°
Sets 00:17:31 0° 323° (NW) 2,978 8.1 -14.6°
